This is the latest recevied weather packets stored in our database for station/object KQ4UWH. If no packets are shown the sender has not sent any weather packets the latest 10 day(s).
| Time | Temp. | Humidity | Pressure | Rain* | Wind** | Luminosity | Snow |
|---|---|---|---|---|---|---|---|
| 1777940862 | 19.44° C | 51% | 1239.7 hPa | 0 mm | - | 1 W/m² | - |
| 1777940559 | 20° C | 52% | 1239.7 hPa | 0 mm | - | 3 W/m² | - |
| 1777940257 | 20° C | 50% | 1239.7 hPa | 0 mm | - | 4 W/m² | - |
| 1777939954 | 20.56° C | 50% | 1239.7 hPa | 0 mm | - | 7 W/m² | - |
| 1777939651 | 20.56° C | 49% | 1239.7 hPa | 0 mm | - | 9 W/m² | - |
| 1777939349 | 21.11° C | 47% | 1239.7 hPa | 0 mm | - | 12 W/m² | - |
| 1777939045 | 21.67° C | 46% | 1239.7 hPa | 0 mm | - | 15 W/m² | - |
| 1777938741 | 21.67° C | 45% | 1239.7 hPa | 0 mm | - | 20 W/m² | - |
| 1777938439 | 22.22° C | 44% | 1239.7 hPa | 0 mm | - | 25 W/m² | - |
| 1777938136 | 22.22° C | 42% | 1239.7 hPa | 0 mm | - | 31 W/m² | - |
| 1777937832 | 22.78° C | 42% | 1239.7 hPa | 0 mm | - | 36 W/m² | - |
| 1777937528 | 22.78° C | 41% | 1239.7 hPa | 0 mm | - | 39 W/m² | - |
| 1777937226 | 22.78° C | 40% | 1239.7 hPa | 0 mm | - | 38 W/m² | - |
| 1777936922 | 22.78° C | 39% | 1239.7 hPa | 0 mm | - | 35 W/m² | - |
| 1777936619 | 23.33° C | 37% | 1239.7 hPa | 0 mm | - | 31 W/m² | - |
| 1777936315 | 23.33° C | 35% | 1239.7 hPa | 0 mm | - | 31 W/m² | - |
| 1777936012 | 23.89° C | 35% | 1239.7 hPa | 0 mm | - | 33 W/m² | - |
| 1777935711 | 23.89° C | 34% | 1239.7 hPa | 0 mm | - | 41 W/m² | - |
| 1777935409 | 24.44° C | 36% | 1239.7 hPa | 0 mm | - | 44 W/m² | - |
| 1777935104 | 24.44° C | 33% | 1239.7 hPa | 0 mm | - | 41 W/m² | - |
| 1777934801 | 25° C | 32% | 1239.7 hPa | 0 mm | - | 47 W/m² | - |
| 1777934498 | 25.56° C | 33% | 1239.7 hPa | 0 mm | - | 56 W/m² | - |
| 1777934196 | 26.11° C | 31% | 1239.7 hPa | 0 mm | - | 171 W/m² | - |
| 1777933891 | 25.56° C | 31% | 1239.7 hPa | 0 mm | - | 201 W/m² | - |
| 1777933588 | 25.56° C | 31% | 1239.7 hPa | 0 mm | - | 145 W/m² | - |
* Rain latest hour (hover to see other rain measurements)
** Current wind speed in m/s (hover to see current wind gust speed)